EST,Max TemperatureF,Mean TemperatureF,Min TemperatureF,Max Dew PointF,MeanDew PointF,Min DewpointF,Max Humidity, Mean Humidity, Min Humidity, Max Sea Level PressureIn, Mean Sea Level PressureIn, Min Sea Level PressureIn, Max VisibilityMiles, Mean VisibilityMiles, Min VisibilityMiles, Max Wind SpeedMPH, Mean Wind SpeedMPH, Max Gust SpeedMPH,PrecipitationIn, CloudCover, Events, WindDirDegrees
2012-11-1,48,46,43,40,38,36,82,75,68,29.69,29.63,29.59,10,10,9,7,4,,0.04,8,Rain,232
2012-11-2,48,42,39,37,34,31,77,69,59,29.89,29.76,29.70,10,10,10,12,6,20,0.02,7,Rain,295
2012-11-3,45,42,39,33,30,29,77,63,56,30.06,29.98,29.89,10,10,10,13,8,22,0.00,8,,305
2012-11-4,41,40,37,31,29,27,73,65,60,30.09,30.07,30.05,10,10,10,10,7,16,0.00,8,,354
2012-11-5,41,38,36,26,25,23,64,58,53,30.21,30.13,30.07,10,10,10,12,7,16,0.00,8,,346
2012-11-6,43,36,28,27,23,20,89,66,41,30.24,30.16,30.09,10,10,9,7,3,,0.00,4,,80
2012-11-7,43,36,28,26,23,19,92,61,43,30.09,30.00,29.95,10,10,9,10,5,,0.00,0,,355
2012-11-8,50,40,30,24,20,12,75,46,23,30.09,30.00,29.95,10,10,10,20,6,31,0.00,0,,327
2012-11-9,53,43,33,33,30,21,92,67,45,30.24,30.17,30.08,10,10,8,10,5,,0.00,1,,311
2012-11-10,52,41,30,43,36,29,100,90,68,30.38,30.33,30.23,6,4,2,5,0,,0.07,4,Rain,3
2012-11-11,64,48,33,43,38,33,100,86,42,30.47,30.40,30.36,10,4,0,7,1,,0.00,1,Fog,238
2012-11-12,64,50,37,55,47,36,97,79,65,30.40,30.25,30.09,10,8,2,22,5,32,0.15,4,Rain,200
2012-11-13,46,42,37,45,34,26,100,76,49,30.52,30.36,30.24,10,8,2,12,4,16,0.47,6,Rain,329
2012-11-14,46,38,28,29,26,23,92,62,44,30.59,30.52,30.48,10,10,10,12,7,,0.00,3,,358
2012-11-15,44,36,27,31,27,25,96,80,51,30.47,30.40,30.35,10,10,6,5,1,,0.00,0,,338
2012-11-16,48,38,28,33,28,26,96,80,46,30.51,30.40,30.34,10,8,3,10,2,,0.00,0,,355
2012-11-17,52,38,25,34,29,23,92,79,47,30.66,30.61,30.51,10,8,4,6,2,,0.01,0,,333
2012-11-18,50,37,24,34,27,21,100,85,50,30.69,30.64,30.57,10,5,0,5,1,,0.00,2,Fog,327
2012-11-19,51,38,25,35,29,24,100,84,50,30.56,30.44,30.28,10,6,2,5,1,,0.00,1,,330
2012-11-20,48,38,28,34,30,27,100,84,48,30.26,30.20,30.12,10,6,2,5,1,,0.00,0,,341
2012-11-21,54,40,26,35,29,25,96,82,41,30.27,30.23,30.17,10,6,2,4,0,,0.01,0,,320
2012-11-22,54,38,23,34,27,21,96,81,43,30.31,30.24,30.13,10,6,3,5,0,,0.00,1,,350
2012-11-23,54,40,25,39,30,23,100,70,43,30.12,29.91,29.77,10,7,2,13,2,26,0.00,3,,236
2012-11-24,39,36,34,23,21,19,59,52,45,29.97,29.89,29.85,10,10,9,18,11,32,0.00,7,Snow,284
2012-11-25,37,30,24,25,21,19,88,63,50,30.01,29.97,29.91,10,10,8,10,7,20,0.00,6,,257
2012-11-26,46,36,27,27,24,22,89,67,39,30.25,30.15,29.98,10,9,5,6,2,,0.00,3,,263
2012-11-27,36,33,30,34,31,26,100,93,75,30.29,30.26,30.23,10,2,0,6,1,,0.29,8,Fog-Rain-Snow,340
2012-11-28,41,31,21,30,24,20,100,80,45,30.34,30.28,30.23,10,6,0,9,2,,0.00,5,Fog,285
2012-11-29,44,35,25,27,23,21,88,69,43,30.41,30.35,30.30,10,9,6,9,1,16,0.00,1,,224
2012-11-30,46,34,23,32,27,20,92,75,50,30.40,30.36,30.32,10,7,4,4,0,,0.00,4,,140